User: anonymous   Login
Location: Unspecified
(0.0000°N, 0.0000°E)
Time: 08:06:07
(UTC+00:00)
Language:

Okean 3 - Orbit

View from above orbital plane
View from above orbital plane
View from above satellite
View from above satellite

Ground track
Ground track

The orbit data is extracted from the following two-line orbital elements,

1 21397U 91039A   19288.86456013 +.00000224 +00000-0 +19093-4 0  9999
2 21397 082.5236 050.1150 0016321 271.4259 088.5091 14.92844415515627
Epoch (UTC): 15 October 2019 20:44:57
Eccentricity: 0.0016321
inclination: 82.5236°
perigee height: 578 km
apogee height: 600 km
right ascension of ascending node: 50.1150°
argument of perigee: 271.4259°
revolutions per day: 14.92844415
mean anomaly at epoch: 88.5091°
orbit number at epoch: 51562

The dashed part of the orbit path shows where the satellite is in the earth's shadow,  

DLR